Regional Weather Roundup
Issued by NWS Newport/Morehead, NC

Current Version | Previous Version | Graphics & Text | Print | Product List | Glossary On
Versions: 1 2 3 4 5 6 7 8 9 10 11 12 13 14 15 16 17 18 19 20 21 22 23 24 25 26 27 28 29 30 31 32 33 34 35 36 37 38 39 40 41 42 43 44 45 46 47 48 49 50
043 ASUS42 KMHX 202113 RWRMHX WEATHER ROUNDUP FOR EASTERN NORTH CAROLINA NATIONAL WEATHER SERVICE NEWPORT/MOREHEAD CITY NC 400 PM EST FRI JAN 20 2017 NOTE: "FAIR" INDICATES FEW OR NO CLOUDS BELOW 12,000 FEET WITH NO SIGNIFICANT WEATHER AND/OR OBSTRUCTIONS TO VISIBILITY NCZ015>017-031-032-045>047-102-103-202200- NORTH COAST CITY SKY/WX TMP DP RH WIND PRES REMARKS EDENTON CLOUDY 53 49 87 CALM 29.87S ELIZABETH CITY CLOUDY 50 49 96 NE7 29.87S KITTY HAWK NOT AVBL MANTEO CLOUDY 50 49 98 E8 29.87S $$ NCZ045>047-081-094-103-104-202200- CENTRAL COAST CITY SKY/WX TMP DP RH WIND PRES REMARKS FRISCO CLOUDY 65 62 90 SW6 29.84S FOG $$ NCZ095-097-098-100-101-202200- SOUTHERN COAST CITY SKY/WX TMP DP RH WIND PRES REMARKS BEAUFORT PTSUNNY 66 60 81 SW8 29.83F CEDAR ISLAND NOT AVBL JACKSONVILLE PTSUNNY 73 61 65 SW5 29.82S PINEY ISLAND MOCLDY N/A N/A N/A CALM 29.82F WILMINGTON PTSUNNY 73 61 65 SW8 29.82F $$ NCZ011>013-027>030-043-044-078>080-089-090>093-098-202200- COASTAL PLAIN CITY SKY/WX TMP DP RH WIND PRES REMARKS AHOSKIE N/A 49 49 97 CALM 29.87R CLINTON CLOUDY 72 60 65 W8 29.82S ELIZABETHTOWN PTSUNNY 72 59 62 W9 29.83R GOLDSBORO CLOUDY 68 62 79 NW3 29.81S GREENVILLE CLOUDY 63 55 77 NE3 29.86F HAVELOCK PTSUNNY 71 61 70 S6 29.83F KENANSVILLE CLOUDY 70 59 68 CALM 29.82S KINSTON PTSUNNY 70 57 64 CALM 29.83F NEW BERN CLOUDY 72 59 63 W3 29.83F RICHLANDS CLOUDY 71 61 70 W3 29.82F ROCKY MOUNT CLOUDY 55 53 93 N5 29.85S WASHINGTON PTSUNNY 60 54 79 CALM N/A WHITEVILLE PTSUNNY 74 60 59 W3 29.82R $$ AMZ130-135-150-152-154-156-158-170-250-252-270-ANZ085-086-088-633-658-670-202200- MARINE OBSERVATIONS STATION/POSITION TIME TEMP WIND PRES WAVE SWELL AIR SEA DIR/SP/G HT/PER HT/PER (UTC) (F) (DEG/KT/KT) (MB) (FT/S) (FT/S) CHESAPEAKE LIGHT NOT AVBL 64 E VA BEACH 2050 53 58 60/ 12/ 16 1011.8 4/11 5/11 DUCK 2048 48 45 60/ 9/ 9 1010.6 2 E DUCK 2030 45 N/A 4/13 2/13 OREGON INLET 2036 50 49 30/ 8/ 10 1010.9 13E OREGON INLT NOT AVBL HATTERAS CG 2048 64 55 190/ 3/ 9 1009.9 DIAMOND BUOY 2050 71 76 190/ 19/ 23 1009.6 5/11 5/11 CAPE LOOKOUT 2100 66 230/ 6/ 8 1010.0 BEAUFORT LAB 2048 66 51 240/ 4/ 6 1009.2 30 SE NEW RVR IN 2008 65 66 240/ 8/ 10 1010.7 30 SE NEW RVR IN 2043 66 N/A 4/13 2/13 27 SE WRIGHTSVLE 2008 69 71 250/ 10/ 14 1010.4 5 SE WRIGHTSVLE 2008 60 200/ 10/ 14 1010.1 225 S CAPE HAT 2050 72 70 220/ 6/ 10 1012.7 5/10 5/10 41 SE CHARLESTON 2050 69 71 240/ 16/ 17 1010.5 3/ 4 2/ 7 $$

USA.gov is the U.S. government's official web portal to all federal, state and local government web resources and services.